Regional Weather Roundup
Issued by NWS

Home | Current Version | Previous Version | Text Only | Print | Product List | Glossary On
Versions: 1 2 3 4 5 6 7 8 9 10 11 12 13 14 15 16 17 18 19 20 21 22 23 24 25 26 27 28 29 30 31 32 33 34 35 36 37 38 39 40 41 42 43 44 45 46 47 48 49 50
000
ASUS43 KTOP 012208
RWRKS

WEATHER ROUNDUP FOR KANSAS
NATIONAL WEATHER SERVICE GOODLAND KS
400 PM CST SUN FEB 01 2015

NOTE:  "FAIR" INDICATES FEW OR NO CLOUDS BELOW 12,000 FEET WITH NO
SIGNIFICANT WEATHER AND/OR OBSTRUCTIONS TO VISIBILITY.

KSZ001>006-013>018-027>032-041>047-012300-
NORTHWEST KANSAS

CITY           SKY/WX    TMP DP  RH WIND       PRES   REMARKS
GOODLAND       PTSUNNY   18   9  68 N23G33    30.21R WCI   0
HAYS           CLOUDY    19   3  49 N26G36    30.24R WCI   1
HILL CITY      CLOUDY    18   7  62 N30G38    30.27R WCI  -1
RUSSELL        FLURRIES  19  12  74 N36       30.22R WCI  -1
$$

KSZ061>065-074>080-084>089-012300-
SOUTHWEST KANSAS

CITY           SKY/WX    TMP DP  RH WIND       PRES   REMARKS
DODGE CITY     CLOUDY    24   9  52 N30G38    30.19R WCI   7
ELKHART          N/A     32  14  47 NW17        N/A  WCI  21
GARDEN CITY    SUNNY     24   8  50 N32G39    30.21R WCI   6
LIBERAL        MOSUNNY   30  16  55 N25G36    30.23R WCI  16
PRATT          PTSUNNY   23  14  68 N35G40    30.19R WCI   4
$$

KSZ066>073-081>083-090>101-012300-
SOUTHEAST KANSAS

CITY           SKY/WX    TMP DP  RH WIND       PRES   REMARKS
CHANUTE        CLOUDY    23  14  68 NW24G38   30.05R WCI   7
COFFEYVILLE    CLOUDY    26  16  65 NW21G31   30.08R WCI  12
HUTCHINSON     FLURRIES  21  10  62 N26G36    30.17R WCI   4
MEDICINE LODGE   N/A     26  15  63 N30G36    30.19R WCI  10
NEWTON         CLOUDY    19   9  63 N30G39    30.13S WCI   0
PARSONS        CLOUDY    25  16  68 NW25G33   30.07R WCI   9
WICHITA INTL   FLURRIES  23  11  60 NW28G37   30.15R WCI   6
WICHITA JABRA  FLURRIES  20  18  92 NW23G33   30.14R WCI   3
WICHITA MCCONL FLURRIES  21  10  63 N26G37    30.14R WCI   4
WINFIELD       CLOUDY    24  12  60 NW28G38   30.15R WCI   7
$$

KSZ007>012-019>026-033>040-048>060-102>105-012300-
NORTHEAST KANSAS

CITY           SKY/WX    TMP DP  RH WIND       PRES   REMARKS
CONCORDIA      LGT SNOW  12   7  80 N22G29    30.22R WCI  -7
EMPORIA        LGT SNOW  17  11  77 NW25G36   30.10R WCI  -1
LAWRENCE       LGT SNOW  20  15  81 NW26G36   30.05R WCI   2
MANHATTAN      LGT SNOW  14   7  73 N16G25    30.19R WCI  -2
MARYSVILLE     LGT SNOW  12   9  85 NW17G26   30.15R VSB 3/4 WCI  -5
OLATHE IND     LGT SNOW  21  17  84 NW26G36   30.00R FOG     WCI   4
OLATHE EXE     LGT SNOW  22  18  85 NW24G39   29.96R FOG     WCI   5
SALINA         LGT SNOW  18  10  71 N31G40    30.20S WCI  -2
TOPEKA BILLARD LGT SNOW  19  11  70 NW22G33   30.10R WCI   2
TOPEKA FORBES  LGT SNOW  20  13  74 NW29G38   30.06R WCI   1
$$


USA.gov is the U.S. government's official web portal to all federal, state and local government web resources and services.